[[[{"header":{"parameterUnit":"kt","parameterCategory":2,"dx":1,"dy":1,"la1":30.253999710083008,"la2":30.299108505249023,"lo1":-89.0895004272461,"lo2":-89.04439544677734,"nx":28,"ny":28,"refTime":"2022-09-21T21:00:00:Z","depth":"0","parameterNumber":2,"parameterNumberName":"U-component_of_CURRENTS"},"data":[-0.4538,-0.4644,-0.4774,-0.5108,-0.5294,-0.5389,-0.5433,-0.5553,-0.5631,-0.5853,-0.601,-0.6209,-0.5967,-0.6101,-0.5715,-0.5472,-0.5252,-0.5074,-0.4971,-0.514,-0.5138,-0.5135,-0.5149,-0.5153,-0.5153,-0.48,-0.4797,-0.4795,-0.4597,-0.4709,-0.4883,-0.5143,-0.5339,-0.5428,-0.5586,-0.5614,-0.5818,-0.6001,-0.6182,-0.6375,-0.6332,-0.6141,-0.5839,-0.5566,-0.5436,-0.5295,-0.5157,-0.515,-0.5361,-0.539,-0.5445,-0.5445,-0.5445,-0.5445,-0.5445,-0.5445,-0.4686,-0.4766,-0.492,-0.5112,-0.5286,-0.5479,-0.5521,-0.5676,-0.5847,-0.5974,-0.6101,-0.6216,-0.6169,-0.5958,-0.5838,-0.552,-0.5363,-0.5327,-0.5259,-0.514,-0.5144,-0.5387,-0.5408,-0.5407,-0.5406,-0.5405,-0.5405,0,-0.4768,-0.4838,-0.4918,-0.5147,-0.525,-0.5387,-0.5476,-0.556,-0.5614,-0.5729,-0.5883,-0.597,-0.5896,-0.587,-0.5664,-0.5523,-0.5206,-0.5286,-0.5203,-0.5234,-0.5131,-0.5117,-0.5319,-0.533,-0.5329,-0.5327,-0.5327,-0.5326,-0.4839,-0.4876,-0.5063,-0.5143,-0.5197,-0.5286,-0.5354,-0.5407,-0.5459,-0.5557,-0.5598,-0.5622,-0.5712,-0.5594,-0.5451,-0.532,-0.519,-0.5256,-0.5238,-0.5186,-0.512,-0.5004,-0.4998,-0.531,-0.5312,-0.5314,-0.5315,0,-0.4868,-0.4949,-0.5031,-0.5148,-0.5195,-0.5241,-0.534,-0.538,-0.5401,-0.5476,-0.5477,-0.5514,-0.5493,-0.5405,-0.5306,-0.5238,-0.5125,-0.5153,-0.5248,-0.5253,-0.5178,-0.5124,-0.4964,-0.4953,-0.5128,-0.5128,-0.5129,0,-0.4938,-0.4968,-0.5097,-0.5119,-0.521,-0.5216,-0.5281,-0.5309,-0.5344,-0.5407,-0.5378,-0.5435,-0.5326,-0.531,-0.5232,-0.5192,-0.5172,-0.5143,-0.5136,-0.5203,-0.5212,-0.5184,-0.5137,-0.5092,-0.5092,-0.5093,-0.5093,0,-0.4954,-0.5034,-0.5099,-0.5119,-0.52,-0.522,-0.5252,-0.5298,-0.5348,-0.5342,-0.5383,-0.5331,-0.5331,-0.5259,-0.5228,-0.5213,-0.5164,-0.5138,-0.5141,-0.5144,-0.5235,-0.5247,-0.5136,-0.5093,-0.5093,-0.5093,-0.5093,0,-0.4984,-0.5046,-0.51,-0.5171,-0.5184,-0.5201,-0.5272,-0.5295,-0.533,-0.5349,-0.5344,-0.5342,-0.5305,-0.5289,-0.5226,-0.5236,-0.5203,-0.5172,-0.517,-0.5245,-0.5248,-0.5269,-0.525,-0.5184,-0.5153,-0.5153,-0.5153,0,-0.5014,-0.507,-0.5093,-0.5132,-0.5168,-0.5207,-0.5236,-0.5274,-0.5314,-0.5334,-0.5321,-0.5323,-0.5308,-0.5294,-0.5266,-0.5228,-0.5204,-0.5225,-0.5218,-0.5218,-0.5229,-0.5196,-0.5272,-0.5253,-0.516,-0.5159,-0.5159,0,-0.5024,-0.5095,-0.5095,-0.5134,-0.5179,-0.5195,-0.5221,-0.5276,-0.5308,-0.5308,-0.5332,-0.531,-0.53,-0.5316,-0.5299,-0.5278,-0.5215,-0.528,-0.5281,-0.5243,-0.5164,-0.52,-0.5199,-0.5196,-0.5196,-0.5195,-0.5164,0,-0.5083,-0.5119,-0.5112,-0.5165,-0.518,-0.5193,-0.5239,-0.5254,-0.5288,-0.5315,-0.5315,-0.531,-0.5332,-0.5309,-0.5326,-0.5291,-0.5299,-0.5303,-0.5329,-0.5307,-0.53,-0.5296,-0.5373,-0.5374,-0.5376,-0.5377,0,0,-0.5104,-0.5149,-0.5175,-0.5187,-0.5212,-0.5256,-0.5272,-0.5287,-0.5319,-0.5338,-0.5341,-0.5356,-0.5359,-0.5357,-0.5346,-0.5354,-0.535,-0.537,-0.5332,-0.5326,-0.5322,-0.5312,-0.5306,-0.5379,-0.538,-0.538,-0.5381,0,-0.513,-0.5175,-0.5179,-0.52,-0.5238,-0.5266,-0.5274,-0.5299,-0.5312,-0.5341,-0.5344,-0.5339,-0.5374,-0.537,-0.5382,-0.5372,-0.5367,-0.5369,-0.5369,-0.5343,-0.5336,-0.533,-0.5319,-0.5313,-0.5384,-0.5384,-0.5384,0,-0.5168,-0.5208,-0.5215,-0.5272,-0.5286,-0.5304,-0.5327,-0.5327,-0.5348,-0.5374,-0.5384,-0.5378,-0.5413,-0.5405,-0.5409,-0.5434,-0.5406,-0.5422,-0.5418,-0.5441,-0.5417,-0.5409,-0.5402,-0.5482,-0.5482,-0.5482,0,0,-0.5189,-0.5205,-0.5266,-0.5283,-0.5295,-0.5326,-0.5332,-0.5346,-0.5367,-0.5371,-0.5385,-0.5409,-0.5414,-0.543,-0.5431,-0.5443,-0.5455,-0.5429,-0.5424,-0.542,-0.5439,-0.5416,-0.5409,-0.5481,-0.5481,-0.5481,0,0,-0.5186,-0.5247,-0.5286,-0.5311,-0.5339,-0.5357,-0.5344,-0.537,-0.5382,-0.538,-0.5407,-0.5411,-0.5406,-0.5441,-0.5429,-0.5427,-0.5455,-0.5458,-0.5381,-0.5376,-0.5371,-0.5386,-0.5423,0,0,0,0,0,-0.5241,-0.5244,-0.528,-0.5293,-0.5343,-0.5354,-0.5355,-0.5368,-0.5381,-0.5373,-0.54,-0.5397,-0.5442,-0.5431,-0.5433,-0.5398,-0.547,-0.5472,-0.5474,-0.5376,-0.5371,-0.5366,0,0,0,0,0,0,-0.5246,-0.5262,-0.5279,-0.5306,-0.5317,-0.5354,-0.5367,-0.5369,-0.5381,-0.5382,-0.5393,-0.5397,-0.5403,-0.543,-0.5432,-0.5397,-0.5423,-0.547,-0.5472,-0.5474,-0.5374,-0.537,-0.5366,0,0,0,0,0,-0.525,-0.5263,-0.5352,-0.5303,-0.5313,-0.5336,-0.5367,-0.5369,-0.5372,-0.5391,-0.5393,-0.5384,-0.5402,-0.5405,-0.5431,-0.5395,-0.5421,-0.5422,-0.5472,-0.5473,-0.5474,-0.5372,0,0,0,0,0,0,-0.5253,-0.5245,-0.5353,-0.5355,-0.5309,-0.5332,-0.534,-0.5369,-0.5379,-0.5383,-0.5382,-0.5382,-0.5401,-0.5404,-0.5406,-0.5393,-0.542,-0.5421,-0.5421,-0.5473,-0.5474,-0.5475,0,0,0,0,0,0,-0.5238,-0.5247,-0.5353,-0.536,-0.5362,-0.5329,-0.5336,-0.5344,-0.5379,-0.5368,-0.537,-0.5382,-0.5408,-0.5403,-0.5405,-0.5414,-0.5419,-0.542,-0.542,-0.5421,-0.5473,-0.5474,0,0,0,0,0,0,-0.5241,-0.5248,-0.5359,-0.536,-0.5362,-0.538,-0.5335,-0.5389,-0.5379,-0.5367,-0.5381,-0.5381,-0.5408,-0.5409,-0.5404,-0.5412,-0.5414,-0.5419,-0.542,-0.542,-0.542,0,0,0,0,0,0,0,-0.5244,-0.5204,-0.5349,-0.5361,-0.5363,-0.5375,-0.5374,-0.5374,-0.5379,-0.538,-0.538,-0.5381,-0.5415,-0.5416,-0.5416,-0.5411,0,0,-0.5419,-0.5419,0,0,0,0,0,0,0,0,-0.52,-0.5203,-0.5349,-0.535,-0.5351,-0.5375,-0.5374,-0.5374,-0.5379,-0.538,-0.538,-0.5381,-0.5415,-0.5416,-0.5416,0,0,0,0,0,0,0,0,0,0,0,0,0,0,0,-0.535,-0.535,0,-0.5374,-0.5374,-0.5374,-0.538,-0.538,-0.538,-0.5381,-0.5415,-0.5416,-0.5416,0,0,0,0,0,0,0,0,0,0,0,0,0,0,0,0,0,0,0,0,0,0,0,0,0,0,0,0,0,0,0,0,0,0,0,0,0,0,0,0,0,0,0,0,0,0,0,0,0,0,0,0,0,0,0,0,0,0,0,0,0,0,0,0,0,0,0,0,0]}],[{"header":{"parameterUnit":"kt","parameterCategory":2,"dx":1,"dy":1,"la1":30.253999710083008,"la2":30.299108505249023,"lo1":-89.0895004272461,"lo2":-89.04439544677734,"nx":28,"ny":28,"refTime":"2022-09-21T21:00:00:Z","depth":"0","parameterNumber":3,"parameterNumberName":"V-component_of_CURRENTS"},"data":[-0.2183,-0.2462,-0.2635,-0.3128,-0.3298,-0.3501,-0.3506,-0.3296,-0.2989,-0.2314,-0.1675,-0.126,-0.0425,0.0341,0.0606,0.0466,0.0357,0.0334,0.0294,0.0236,0.0212,0.019,0.0242,0.0414,0.0415,0.0304,0.0305,0.0305,-0.2121,-0.2323,-0.2506,-0.2745,-0.2984,-0.293,-0.294,-0.2919,-0.2856,-0.2451,-0.2224,-0.1458,-0.103,-0.0559,-0.0075,0.0009,-0.0146,0.0049,0.0043,-0.0072,-0.0202,-0.0164,-0.0075,-0.0075,-0.0076,-0.0076,-0.0076,-0.0076,-0.2016,-0.2139,-0.2293,-0.2452,-0.2552,-0.2663,-0.27,-0.2619,-0.2588,-0.2357,-0.2199,-0.1817,-0.1315,-0.0757,-0.0648,-0.0319,-0.0392,-0.0225,-0.0171,-0.0159,-0.0207,-0.0357,-0.0299,-0.0299,-0.0299,-0.0298,-0.0298,0,-0.1942,-0.1996,-0.2064,-0.222,-0.2273,-0.2328,-0.232,-0.2322,-0.2166,-0.2088,-0.1972,-0.1808,-0.1424,-0.1098,-0.0713,-0.0606,-0.0425,-0.0444,-0.0324,-0.0286,-0.026,-0.0338,-0.052,-0.0509,-0.0509,-0.051,-0.051,-0.0511,-0.1854,-0.1908,-0.1962,-0.2017,-0.2005,-0.2005,-0.202,-0.1881,-0.1883,-0.1705,-0.1729,-0.1509,-0.1352,-0.1031,-0.0796,-0.057,-0.0493,-0.0472,-0.0454,-0.0339,-0.0264,-0.0238,-0.0323,-0.052,-0.0518,-0.0517,-0.0517,0,-0.1827,-0.1814,-0.1858,-0.1822,-0.1808,-0.1822,-0.1739,-0.1752,-0.1607,-0.1585,-0.1554,-0.1348,-0.1177,-0.0953,-0.0805,-0.0693,-0.0536,-0.0537,-0.059,-0.0573,-0.0357,-0.0301,-0.02,-0.0287,-0.046,-0.0458,-0.0456,0,-0.1738,-0.1748,-0.173,-0.1733,-0.1755,-0.1616,-0.1605,-0.1518,-0.1414,-0.1405,-0.1214,-0.1186,-0.0969,-0.0867,-0.0768,-0.0635,-0.0676,-0.0557,-0.0537,-0.0573,-0.0569,-0.0425,-0.0363,-0.0623,-0.0623,-0.0622,-0.0622,0,-0.1684,-0.1637,-0.1663,-0.1627,-0.1533,-0.1499,-0.1437,-0.1307,-0.128,-0.1161,-0.1138,-0.0998,-0.0945,-0.0864,-0.0728,-0.0729,-0.0647,-0.0636,-0.0549,-0.0545,-0.0529,-0.0521,-0.0453,-0.0622,-0.0622,-0.0622,-0.0621,0,-0.158,-0.1579,-0.1574,-0.1509,-0.1485,-0.143,-0.1332,-0.1265,-0.1147,-0.1094,-0.1002,-0.0917,-0.0823,-0.0784,-0.0684,-0.0687,-0.0661,-0.0622,-0.0622,-0.0491,-0.0458,-0.0539,-0.0565,-0.0447,-0.0622,-0.0622,-0.0622,0,-0.1569,-0.1553,-0.1464,-0.1427,-0.1413,-0.1296,-0.1224,-0.1142,-0.107,-0.1004,-0.0908,-0.0832,-0.0758,-0.0724,-0.0683,-0.0606,-0.0608,-0.06,-0.0545,-0.0544,-0.049,-0.0507,-0.054,-0.0564,-0.0619,-0.062,-0.062,0,-0.1535,-0.1459,-0.1447,-0.1437,-0.1303,-0.1264,-0.1181,-0.1108,-0.1086,-0.0977,-0.0931,-0.0788,-0.075,-0.0676,-0.06,-0.0573,-0.0604,-0.0543,-0.0539,-0.0588,-0.0603,-0.0516,-0.051,-0.0583,-0.0583,-0.0583,-0.0618,0,-0.1477,-0.1448,-0.1429,-0.1351,-0.1284,-0.1255,-0.1159,-0.1109,-0.1057,-0.0994,-0.0905,-0.078,-0.0662,-0.0631,-0.0561,-0.0527,-0.0525,-0.0489,-0.0459,-0.048,-0.0491,-0.0493,-0.0438,-0.0435,-0.0434,-0.0432,0,0,-0.1476,-0.1445,-0.1371,-0.1325,-0.128,-0.1214,-0.1184,-0.1114,-0.0992,-0.0961,-0.0933,-0.0729,-0.0637,-0.0537,-0.0528,-0.0474,-0.0471,-0.0456,-0.0459,-0.0462,-0.0465,-0.0478,-0.0482,-0.0429,-0.0429,-0.0428,-0.0427,0,-0.1449,-0.14,-0.1385,-0.1323,-0.1257,-0.1194,-0.1193,-0.1088,-0.1043,-0.0947,-0.0869,-0.0794,-0.0627,-0.0547,-0.0485,-0.0458,-0.0424,-0.0433,-0.0461,-0.0445,-0.0451,-0.0456,-0.047,-0.0475,-0.0423,-0.0423,-0.0424,0,-0.1427,-0.1376,-0.1363,-0.1281,-0.1221,-0.1167,-0.1124,-0.1075,-0.1031,-0.0918,-0.0815,-0.0738,-0.0612,-0.0521,-0.0477,-0.0453,-0.0382,-0.0371,-0.0377,-0.0367,-0.0347,-0.0354,-0.0359,-0.0294,-0.0295,-0.0295,0,0,-0.1408,-0.1377,-0.1298,-0.1271,-0.1243,-0.1152,-0.1109,-0.1067,-0.0972,-0.0929,-0.0826,-0.0719,-0.0629,-0.0569,-0.0474,-0.0383,-0.036,-0.0362,-0.0368,-0.0374,-0.0367,-0.0349,-0.0354,-0.0296,-0.0296,-0.0296,0,0,-0.1394,-0.1314,-0.1298,-0.1257,-0.1197,-0.1079,-0.1045,-0.1003,-0.0902,-0.09,-0.078,-0.0749,-0.0668,-0.0584,-0.0609,-0.0469,-0.0436,-0.0427,-0.0537,-0.0543,-0.0549,-0.0569,-0.0545,0,0,0,0,0,-0.1347,-0.133,-0.1317,-0.1302,-0.1176,-0.1095,-0.1071,-0.0991,-0.0976,-0.0951,-0.0852,-0.0805,-0.0571,-0.059,-0.0559,-0.0555,-0.0308,-0.0306,-0.0304,-0.0423,-0.043,-0.0437,0,0,0,0,0,0,-0.1341,-0.1324,-0.1317,-0.1209,-0.118,-0.1094,-0.1048,-0.1023,-0.0977,-0.0969,-0.0823,-0.08,-0.0714,-0.06,-0.0573,-0.0572,-0.0554,-0.0307,-0.0305,-0.0303,-0.0425,-0.0432,-0.0437,0,0,0,0,0,-0.1336,-0.1322,-0.1154,-0.1206,-0.118,-0.1073,-0.1048,-0.1027,-0.0979,-0.0851,-0.0827,-0.0929,-0.0716,-0.0687,-0.0584,-0.0587,-0.0572,-0.0562,-0.0306,-0.0304,-0.0303,-0.0428,0,0,0,0,0,0,-0.1332,-0.1271,-0.1145,-0.1133,-0.1223,-0.1075,-0.1053,-0.1032,-0.0861,-0.0839,-0.0952,-0.0948,-0.0716,-0.0694,-0.0673,-0.0598,-0.0586,-0.0576,-0.057,-0.0305,-0.0303,-0.0302,0,0,0,0,0,0,-0.1279,-0.1262,-0.1138,-0.1165,-0.1153,-0.1077,-0.1058,-0.0956,-0.086,-0.0968,-0.0962,-0.0953,-0.0758,-0.0699,-0.0682,-0.0523,-0.0597,-0.0588,-0.0581,-0.0577,-0.0304,-0.0303,0,0,0,0,0,0,-0.1269,-0.1254,-0.1166,-0.1158,-0.1148,-0.099,-0.0982,-0.0856,-0.089,-0.0976,-0.0892,-0.0893,-0.0764,-0.0744,-0.0688,-0.0537,-0.0526,-0.0597,-0.0591,-0.0586,-0.0583,0,0,0,0,0,0,0,-0.1261,-0.1397,-0.1234,-0.1152,-0.1144,-0.1018,-0.1013,-0.1008,-0.089,-0.0891,-0.0891,-0.0892,-0.0651,-0.0641,-0.063,-0.0548,0,0,-0.0598,-0.0593,0,0,0,0,0,0,0,0,-0.14,-0.1397,-0.1234,-0.1232,-0.1231,-0.1017,-0.1013,-0.1009,-0.089,-0.0891,-0.0891,-0.0892,-0.0648,-0.064,-0.0632,0,0,0,0,0,0,0,0,0,0,0,0,0,0,0,-0.1234,-0.1232,0,-0.1017,-0.1013,-0.101,-0.089,-0.0891,-0.0891,-0.0892,-0.0646,-0.0639,-0.0632,0,0,0,0,0,0,0,0,0,0,0,0,0,0,0,0,0,0,0,0,0,0,0,0,0,0,0,0,0,0,0,0,0,0,0,0,0,0,0,0,0,0,0,0,0,0,0,0,0,0,0,0,0,0,0,0,0,0,0,0,0,0,0,0,0,0,0,0,0]}]],[[{"header":{"parameterUnit":"kt","parameterCategory":2,"dx":1,"dy":1,"la1":30.253999710083008,"la2":30.299108505249023,"lo1":-89.0895004272461,"lo2":-89.04439544677734,"nx":28,"ny":28,"refTime":"2022-09-21T21:00:00:Z","depth":"2","parameterNumber":2,"parameterNumberName":"U-component_of_CURRENTS"},"data":[-0.3276,-0.3205,-0.3138,-0.3167,-0.3268,-0.3264,-0.3313,-0.3072,-0.3035,-0.2758,-0.2589,-0.2297,-0.2256,-0.1701,-0.1459,-0.1465,-0.1777,-0.1455,-0.2218,-0.2242,-0.2309,-0.2288,-0.2127,0,0,0,0,0,-0.329,-0.3276,-0.3275,-0.3357,-0.3384,-0.3563,-0.3676,-0.3487,-0.3492,-0.3578,-0.3518,-0.2804,-0.2403,-0.2301,-0.2049,-0.188,-0.1903,-0.1867,-0.1818,-0.1885,-0.1948,-0.1803,-0.1274,-0.1273,-0.1273,-0.1272,0,0,-0.3377,-0.3378,-0.3398,-0.3414,-0.3539,-0.369,-0.3624,-0.3693,-0.3834,-0.3906,-0.4097,-0.3937,-0.3526,-0.2917,-0.2765,-0.2737,-0.2858,-0.2629,-0.2655,-0.2689,-0.2578,-0.2528,-0.2255,-0.226,-0.2265,-0.2269,-0.2272,0,-0.3328,-0.3435,-0.3424,-0.3466,-0.355,-0.3576,-0.3683,-0.3775,-0.3979,-0.4109,-0.4358,-0.4404,-0.4245,-0.3815,-0.3563,-0.3383,-0.3406,-0.3219,-0.3912,-0.2886,-0.2842,-0.2847,-0.2884,-0.2646,-0.2653,-0.2659,-0.2663,-0.2666,-0.3351,-0.3361,-0.3436,-0.3467,-0.355,-0.3618,-0.3672,-0.3818,-0.3902,-0.4214,-0.4299,-0.4433,-0.4461,-0.4332,-0.4072,-0.3867,-0.4007,-0.3409,-0.3175,-0.3743,-0.3747,-0.3756,-0.3763,-0.2748,-0.2737,-0.2729,-0.2722,0,-0.3338,-0.3392,-0.3417,-0.348,-0.352,-0.3596,-0.3753,-0.3774,-0.4027,-0.4201,-0.4283,-0.4481,-0.4489,-0.4494,-0.4382,-0.4229,-0.408,-0.3992,-0.3635,-0.358,-0.3786,-0.3788,-0.3705,-0.37,-0.3695,-0.3692,-0.3689,0,-0.3344,-0.3374,-0.3403,-0.3434,-0.3507,-0.3623,-0.3757,-0.3859,-0.4057,-0.4156,-0.4307,-0.4405,-0.4412,-0.4435,-0.4308,-0.4146,-0.4247,-0.3878,-0.3872,-0.3547,-0.351,-0.4028,-0.4031,-0.3999,-0.3998,-0.3998,-0.3998,0,-0.3352,-0.3363,-0.3426,-0.3481,-0.3564,-0.3689,-0.3751,-0.3948,-0.3989,-0.4152,-0.4267,-0.4326,-0.4369,-0.4305,-0.422,-0.4201,-0.4167,-0.4101,-0.3902,-0.3896,-0.3567,-0.3531,-0.3998,-0.3998,-0.3998,-0.3998,-0.3998,0,-0.3398,-0.3374,-0.3461,-0.3484,-0.3527,-0.3634,-0.3826,-0.3851,-0.3993,-0.406,-0.4188,-0.4245,-0.4234,-0.4154,-0.4113,-0.4173,-0.4094,-0.4028,-0.4029,-0.3911,-0.3921,-0.3527,-0.344,-0.4057,-0.4057,-0.4057,-0.4057,0,-0.3393,-0.3394,-0.3475,-0.353,-0.3547,-0.3726,-0.3785,-0.388,-0.3946,-0.4002,-0.4,-0.4068,-0.4027,-0.4102,-0.4035,-0.404,-0.3974,-0.3972,-0.4059,-0.406,-0.3886,-0.3884,-0.3494,-0.3466,-0.406,-0.406,-0.4059,0,-0.3381,-0.341,-0.3445,-0.3447,-0.3672,-0.3668,-0.3789,-0.3835,-0.3894,-0.3938,-0.4,-0.3964,-0.4041,-0.4053,-0.4086,-0.4016,-0.3973,-0.4075,-0.4075,-0.4029,-0.4039,-0.3906,-0.3892,-0.4042,-0.4041,-0.4041,-0.4062,0,-0.3405,-0.3414,-0.345,-0.3486,-0.3574,-0.3676,-0.3696,-0.377,-0.3851,-0.3871,-0.3967,-0.3952,-0.4042,-0.4025,-0.4017,-0.404,-0.4124,-0.4125,-0.4057,-0.4096,-0.4111,-0.4109,-0.4138,-0.4139,-0.4139,-0.414,0,0,-0.3431,-0.3356,-0.3372,-0.341,-0.3509,-0.36,-0.3662,-0.3683,-0.3796,-0.3844,-0.3864,-0.4017,-0.3979,-0.4031,-0.4055,-0.4066,-0.4135,-0.4069,-0.4109,-0.4106,-0.4103,-0.4115,-0.4113,-0.4141,-0.4141,-0.4141,-0.4141,0,-0.3372,-0.3377,-0.3358,-0.3402,-0.3518,-0.3559,-0.3596,-0.3695,-0.3766,-0.3814,-0.3939,-0.3986,-0.4025,-0.4032,-0.4034,-0.408,-0.4091,-0.4166,-0.4125,-0.4114,-0.411,-0.4106,-0.4117,-0.4115,-0.4142,-0.4142,-0.4142,0,-0.3368,-0.3358,-0.3339,-0.3307,-0.3393,-0.343,-0.3501,-0.3649,-0.3683,-0.3764,-0.3887,-0.3958,-0.3989,-0.4029,-0.4058,-0.4032,-0.404,-0.4045,-0.4046,-0.4027,-0.4013,-0.401,-0.4008,-0.4017,-0.4016,-0.4015,0,0,-0.3358,-0.3332,-0.33,-0.3289,-0.3321,-0.343,-0.3508,-0.3617,-0.3713,-0.3801,-0.3843,-0.3938,-0.3972,-0.3987,-0.4028,-0.4013,-0.4004,-0.4022,-0.4028,-0.4033,-0.4016,-0.4004,-0.4003,-0.4011,-0.4011,-0.4011,0,0,-0.3367,-0.3314,-0.3325,-0.3286,-0.3319,-0.3402,-0.353,-0.3602,-0.3749,-0.387,-0.3876,-0.3891,-0.3968,-0.3967,-0.3918,-0.3987,-0.3976,-0.3984,-0.3936,-0.3944,-0.395,-0.3921,-0.3886,0,0,0,0,0,-0.3307,-0.3283,-0.3289,-0.3286,-0.3323,-0.3344,-0.3376,-0.3567,-0.3703,-0.3749,-0.3883,-0.3856,-0.3987,-0.3942,-0.3931,-0.392,-0.3958,-0.3967,-0.3976,-0.3917,-0.3926,-0.3933,0,0,0,0,0,0,-0.3305,-0.3283,-0.3294,-0.3338,-0.3355,-0.3345,-0.3489,-0.3541,-0.3703,-0.3737,-0.3843,-0.3854,-0.3864,-0.3943,-0.3934,-0.3924,-0.3888,-0.3961,-0.3969,-0.3977,-0.392,-0.3927,-0.3933,0,0,0,0,0,-0.3304,-0.3288,-0.3264,-0.335,-0.3363,-0.3586,-0.3495,-0.354,-0.3704,-0.3726,-0.3755,-0.3858,-0.3858,-0.386,-0.3937,-0.3929,-0.3894,-0.3891,-0.3967,-0.3973,-0.3979,-0.3924,0,0,0,0,0,0,-0.3304,-0.3371,-0.3277,-0.3297,-0.34,-0.36,-0.3619,-0.3537,-0.3687,-0.3718,-0.3726,-0.3747,-0.3853,-0.3855,-0.3855,-0.3934,-0.3899,-0.3896,-0.3894,-0.3971,-0.3976,-0.3981,0,0,0,0,0,0,-0.3384,-0.3382,-0.3288,-0.3338,-0.3366,-0.3611,-0.3627,-0.357,-0.368,-0.3678,-0.3703,-0.3732,-0.38,-0.3851,-0.3851,-0.3763,-0.3902,-0.3899,-0.3897,-0.3896,-0.3975,-0.3979,0,0,0,0,0,0,-0.3391,-0.3391,-0.3335,-0.3356,-0.3381,-0.3618,-0.3565,-0.3565,-0.3824,-0.3663,-0.3841,-0.3849,-0.3787,-0.3796,-0.3848,-0.3759,-0.3762,-0.3902,-0.39,-0.3899,-0.3898,0,0,0,0,0,0,0,-0.3397,-0.3297,-0.3157,-0.337,-0.3392,-0.3478,-0.3483,-0.3489,-0.3825,-0.3832,-0.3839,-0.3845,-0.3919,-0.3916,-0.3912,-0.3755,0,0,-0.3902,-0.3901,0,0,0,0,0,0,0,0,-0.3307,-0.3299,-0.3158,-0.3161,-0.3165,-0.3479,-0.3483,-0.3488,-0.3827,-0.3832,-0.3838,-0.3843,-0.3918,-0.3916,-0.3913,0,0,0,0,0,0,0,0,0,0,0,0,0,0,0,-0.3158,-0.3161,0,-0.3479,-0.3483,-0.3487,-0.3827,-0.3832,-0.3836,-0.3841,-0.3917,-0.3915,-0.3913,0,0,0,0,0,0,0,0,0,0,0,0,0,0,0,0,0,0,0,0,0,0,0,0,0,0,0,0,0,0,0,0,0,0,0,0,0,0,0,0,0,0,0,0,0,0,0,0,0,0,0,0,0,0,0,0,0,0,0,0,0,0,0,0,0,0,0,0,0]}],[{"header":{"parameterUnit":"kt","parameterCategory":2,"dx":1,"dy":1,"la1":30.253999710083008,"la2":30.299108505249023,"lo1":-89.0895004272461,"lo2":-89.04439544677734,"nx":28,"ny":28,"refTime":"2022-09-21T21:00:00:Z","depth":"2","parameterNumber":3,"parameterNumberName":"V-component_of_CURRENTS"},"data":[-0.1331,-0.1496,-0.1557,-0.178,-0.1871,-0.1902,-0.1828,-0.1448,-0.1276,-0.0978,-0.0874,-0.0824,-0.0236,-0.0201,0.0155,0.0421,0.0375,0.0418,0.0529,0.0171,0.0157,0.0392,0.0386,0,0,0,0,0,-0.1271,-0.1406,-0.1501,-0.163,-0.1719,-0.1721,-0.1586,-0.1432,-0.1129,-0.1009,-0.0659,-0.0372,0.0021,0.0259,0.0504,0.0781,0.0667,0.078,0.053,0.0518,0.0507,0.0513,0.0628,0.0629,0.063,0.0631,0,0,-0.1229,-0.1306,-0.1419,-0.15,-0.1563,-0.1547,-0.1488,-0.1329,-0.1138,-0.0954,-0.0592,-0.0217,-0.0032,0.0337,0.0593,0.0686,0.0741,0.0676,0.066,0.0646,0.0669,0.0665,0.0821,0.0822,0.0824,0.0825,0.0826,0,-0.1138,-0.1227,-0.1269,-0.1362,-0.1402,-0.1378,-0.1338,-0.1302,-0.1153,-0.0986,-0.065,-0.0326,0.0025,0.0326,0.053,0.0648,0.0371,0.0469,0.0436,0.0282,0.026,0.0288,0.028,0.034,0.0339,0.0338,0.0337,0.0337,-0.1078,-0.1124,-0.118,-0.1225,-0.1231,-0.1234,-0.1213,-0.1117,-0.1079,-0.09,-0.0866,-0.0648,-0.0302,0.0032,0.0163,0.0402,0.0375,0.0413,0.0495,0.0478,0.0513,0.05,0.0489,0.0325,0.0326,0.0328,0.0329,0,-0.1047,-0.1063,-0.1099,-0.1066,-0.1056,-0.1082,-0.1025,-0.0992,-0.0947,-0.09,-0.0896,-0.0707,-0.0479,-0.0368,-0.0163,-0.0034,0.016,0.0264,0.009,0.0126,0.0457,0.0453,0.0579,0.0586,0.0592,0.0597,0.0601,0,-0.0971,-0.0987,-0.0976,-0.0992,-0.0998,-0.0928,-0.0926,-0.0852,-0.0801,-0.0756,-0.0679,-0.059,-0.0481,-0.0383,-0.0245,0.0001,-0.0097,0.0243,0.0293,0.0156,0.016,0.0133,0.0137,0.0096,0.0096,0.0095,0.0095,0,-0.0936,-0.0885,-0.0926,-0.0917,-0.0837,-0.0839,-0.0784,-0.0712,-0.0668,-0.0607,-0.059,-0.0499,-0.0457,-0.0347,-0.0192,-0.0178,-0.0059,-0.0,0.0244,0.0255,0.0201,0.021,0.0095,0.0094,0.0094,0.0094,0.0094,0,-0.0857,-0.0849,-0.0879,-0.0801,-0.0788,-0.0773,-0.071,-0.0643,-0.0552,-0.0503,-0.0458,-0.0391,-0.0324,-0.0257,-0.0132,-0.0168,-0.0079,-0.0001,0.0004,0.0221,0.0283,0.0194,0.0171,0.0064,0.0064,0.0064,0.0063,0,-0.0834,-0.0835,-0.0793,-0.0767,-0.0752,-0.069,-0.063,-0.0566,-0.049,-0.0416,-0.0326,-0.0264,-0.0197,-0.0185,-0.0127,-0.0048,-0.0004,-0.0025,0.0094,0.0098,0.0252,0.025,0.0117,0.0161,0.0058,0.0059,0.0059,0,-0.0805,-0.0755,-0.0759,-0.074,-0.07,-0.0652,-0.061,-0.0516,-0.049,-0.0383,-0.0334,-0.02,-0.0183,-0.0116,-0.0059,-0.0006,-0.0007,0.0021,0.0026,0.0029,0.0043,0.022,0.024,0.001,0.001,0.0011,0.0055,0,-0.0763,-0.0736,-0.074,-0.0676,-0.0645,-0.0641,-0.0542,-0.0493,-0.0443,-0.0366,-0.0297,-0.0168,-0.0069,-0.0039,0.0029,0.0044,0.0045,0.0087,0.0148,0.0107,0.0132,0.0135,0.0136,0.0139,0.014,0.0142,0,0,-0.0751,-0.0693,-0.0629,-0.0613,-0.0602,-0.0534,-0.0521,-0.0444,-0.0332,-0.0301,-0.0278,-0.0102,-0.0004,0.007,0.0052,0.0117,0.0126,0.0131,0.0126,0.0123,0.0121,0.0143,0.0143,0.0145,0.0146,0.0147,0.0147,0,-0.0702,-0.0655,-0.0642,-0.0593,-0.056,-0.0491,-0.0499,-0.0402,-0.0373,-0.0268,-0.0237,-0.0179,0.0005,0.0065,0.0127,0.0135,0.0188,0.0135,0.0098,0.014,0.0135,0.0131,0.015,0.0149,0.0152,0.0151,0.0151,0,-0.0661,-0.0614,-0.0594,-0.049,-0.0447,-0.0399,-0.0364,-0.0363,-0.0324,-0.0219,-0.0151,-0.0091,0.0031,0.0106,0.0142,0.0178,0.0257,0.0256,0.0248,0.0253,0.03,0.0293,0.0288,0.0359,0.0359,0.0359,0,0,-0.0637,-0.0608,-0.0495,-0.0468,-0.0446,-0.0367,-0.0346,-0.0335,-0.0261,-0.0242,-0.0142,-0.0064,0.0017,0.0074,0.0159,0.0268,0.0311,0.0276,0.0267,0.0258,0.0258,0.0302,0.0296,0.036,0.036,0.036,0,0,-0.0623,-0.0521,-0.0494,-0.045,-0.038,-0.0273,-0.0291,-0.0256,-0.019,-0.0239,-0.011,-0.0083,-0.0028,0.0065,0.006,0.0168,0.0212,0.0219,0.011,0.01,0.009,0.006,0.0125,0,0,0,0,0,-0.0537,-0.0524,-0.0501,-0.0485,-0.0355,-0.0265,-0.0248,-0.0238,-0.0268,-0.0252,-0.0193,-0.0141,0.0064,0.0062,0.0103,0.0097,0.0369,0.0367,0.0366,0.025,0.0237,0.0227,0,0,0,0,0,0,-0.0529,-0.0503,-0.0503,-0.0393,-0.0367,-0.0263,-0.0276,-0.0267,-0.027,-0.0276,-0.0153,-0.0134,-0.0053,0.005,0.0084,0.0075,0.0113,0.0368,0.0367,0.0366,0.0245,0.0235,0.0227,0,0,0,0,0,-0.0524,-0.0503,-0.0304,-0.0393,-0.037,-0.0342,-0.0279,-0.0273,-0.0269,-0.0151,-0.0136,-0.0279,-0.0052,-0.0021,0.0071,0.0056,0.009,0.0103,0.0367,0.0366,0.0365,0.024,0,0,0,0,0,0,-0.052,-0.0466,-0.0298,-0.0292,-0.0443,-0.035,-0.0333,-0.0277,-0.0141,-0.013,-0.0267,-0.0271,-0.0049,-0.0026,-0.0002,0.0041,0.0071,0.0084,0.0092,0.0367,0.0366,0.0365,0,0,0,0,0,0,-0.048,-0.0459,-0.0294,-0.0357,-0.0357,-0.0357,-0.0342,-0.0197,-0.0137,-0.0259,-0.0263,-0.027,-0.0087,-0.0028,-0.001,0.0217,0.0057,0.0069,0.0077,0.0083,0.0366,0.0365,0,0,0,0,0,0,-0.0471,-0.0454,-0.0358,-0.0357,-0.0357,-0.0265,-0.0225,-0.0085,-0.0228,-0.0262,-0.024,-0.0245,-0.0089,-0.0069,-0.0015,0.0203,0.0213,0.0057,0.0065,0.0071,0.0075,0,0,0,0,0,0,0,-0.0464,-0.0582,-0.036,-0.0357,-0.0357,-0.0232,-0.0228,-0.0224,-0.0229,-0.0234,-0.0238,-0.0243,-0.0013,0.0,0.0014,0.0193,0,0,0.0056,0.0062,0,0,0,0,0,0,0,0,-0.0589,-0.0584,-0.036,-0.036,-0.0359,-0.0232,-0.0228,-0.0225,-0.023,-0.0233,-0.0237,-0.0241,-0.0009,0.0002,0.0012,0,0,0,0,0,0,0,0,0,0,0,0,0,0,0,-0.036,-0.036,0,-0.0231,-0.0229,-0.0226,-0.023,-0.0233,-0.0236,-0.0239,-0.0006,0.0003,0.0012,0,0,0,0,0,0,0,0,0,0,0,0,0,0,0,0,0,0,0,0,0,0,0,0,0,0,0,0,0,0,0,0,0,0,0,0,0,0,0,0,0,0,0,0,0,0,0,0,0,0,0,0,0,0,0,0,0,0,0,0,0,0,0,0,0,0,0,0,0]}]],[[{"header":{"parameterUnit":"kt","parameterCategory":2,"dx":1,"dy":1,"la1":30.253999710083008,"la2":30.299108505249023,"lo1":-89.0895004272461,"lo2":-89.04439544677734,"nx":28,"ny":28,"refTime":"2022-09-21T21:00:00:Z","depth":"4","parameterNumber":2,"parameterNumberName":"U-component_of_CURRENTS"},"data":[-0.042,-0.037,-0.0323,-0.0197,-0.0131,-0.0091,-0.0108,-0.018,-0.0163,-0.0265,-0.027,-0.039,-0.042,-0.0412,-0.0484,-0.0509,-0.098,-0.0684,-0.0685,-0.1545,-0.1592,-0.1633,-0.1723,0,0,0,0,0,-0.0439,-0.0383,-0.034,-0.0278,-0.023,-0.0227,-0.0272,-0.0358,-0.0461,-0.0371,-0.0491,-0.0412,-0.0467,-0.0502,-0.051,-0.0608,-0.1063,-0.0625,-0.1357,-0.1574,-0.1626,-0.1695,0,0,0,0,0,0,-0.0445,-0.0413,-0.0373,-0.0361,-0.0338,-0.0302,-0.0397,-0.0415,-0.0501,-0.067,-0.0535,-0.0646,-0.0768,-0.0821,-0.0667,-0.0708,-0.1051,-0.1276,-0.134,-0.1392,-0.1391,-0.1041,-0.0582,0,0,0,0,0,-0.0449,-0.0441,-0.0425,-0.0403,-0.0439,-0.0463,-0.0574,-0.0602,-0.0791,-0.0967,-0.0903,-0.1015,-0.094,-0.1147,-0.098,-0.1078,-0.1715,-0.1464,-0.1509,-0.2148,-0.1928,-0.1875,-0.1896,-0.1821,-0.1828,-0.1832,-0.1834,0,-0.0468,-0.0452,-0.046,-0.0448,-0.0497,-0.062,-0.0685,-0.0928,-0.0978,-0.1141,-0.1146,-0.1318,-0.1487,-0.1311,-0.157,-0.1614,-0.1656,-0.1587,-0.2266,-0.2011,-0.1943,-0.1953,-0.1959,-0.1876,-0.1872,-0.1869,-0.1866,0,-0.0486,-0.0477,-0.0469,-0.0536,-0.0573,-0.0646,-0.0835,-0.0904,-0.1176,-0.1291,-0.1483,-0.1787,-0.1909,-0.2016,-0.2247,-0.2293,-0.2282,-0.2119,-0.2245,-0.2176,-0.204,-0.2029,-0.1944,-0.1929,-0.1916,-0.1905,-0.1896,0,-0.0517,-0.0516,-0.0543,-0.0548,-0.0595,-0.0707,-0.0828,-0.0983,-0.1201,-0.1269,-0.1731,-0.1842,-0.242,-0.2413,-0.259,-0.2509,-0.2715,-0.2656,-0.2576,-0.3031,-0.3015,-0.2985,-0.2963,-0.3208,-0.321,-0.3213,-0.3215,0,-0.0556,-0.0566,-0.0554,-0.057,-0.0645,-0.0714,-0.0816,-0.0982,-0.1063,-0.1444,-0.1585,-0.2022,-0.2292,-0.2576,-0.2678,-0.2897,-0.2804,-0.3068,-0.2657,-0.2614,-0.2991,-0.2964,-0.3218,-0.3218,-0.3219,-0.322,-0.3221,0,-0.0604,-0.0598,-0.059,-0.0647,-0.0662,-0.0722,-0.0855,-0.0937,-0.1143,-0.1288,-0.1623,-0.1852,-0.2268,-0.24,-0.2756,-0.2803,-0.2882,-0.2931,-0.2922,-0.2524,-0.2359,-0.2422,-0.2627,-0.2626,-0.2624,-0.2622,-0.2621,0,-0.0636,-0.0617,-0.0655,-0.0676,-0.0679,-0.0769,-0.084,-0.0941,-0.1061,-0.1218,-0.1482,-0.1754,-0.1955,-0.2232,-0.2454,-0.265,-0.2741,-0.2726,-0.2731,-0.2723,-0.2337,-0.2458,-0.2923,-0.2598,-0.2601,-0.2603,-0.2605,0,-0.0667,-0.068,-0.0685,-0.069,-0.076,-0.0779,-0.0858,-0.0941,-0.1009,-0.1209,-0.1357,-0.1704,-0.1918,-0.2042,-0.2261,-0.2454,-0.2661,-0.2579,-0.2583,-0.2403,-0.2864,-0.2464,-0.2436,-0.2885,-0.2893,-0.2899,-0.2589,0,-0.0696,-0.0708,-0.0707,-0.0732,-0.0766,-0.0783,-0.0848,-0.0918,-0.101,-0.108,-0.1326,-0.1522,-0.178,-0.1871,-0.2,-0.2323,-0.2249,-0.2315,-0.2273,-0.2457,-0.2271,-0.2284,-0.208,-0.2077,-0.2074,-0.2072,0,0,-0.0723,-0.0721,-0.075,-0.0753,-0.0775,-0.0827,-0.0838,-0.0882,-0.0984,-0.1041,-0.1094,-0.1436,-0.1538,-0.1796,-0.194,-0.1944,-0.1982,-0.2055,-0.2348,-0.2379,-0.2407,-0.2244,-0.226,-0.2067,-0.2066,-0.2065,-0.2064,0,-0.0724,-0.0752,-0.0747,-0.0767,-0.0796,-0.0821,-0.0836,-0.0891,-0.0936,-0.1045,-0.114,-0.1323,-0.1497,-0.1634,-0.1722,-0.1897,-0.1913,-0.1999,-0.2168,-0.232,-0.2354,-0.2384,-0.2231,-0.2247,-0.2058,-0.2058,-0.2059,0,-0.074,-0.0753,-0.076,-0.0784,-0.0797,-0.0814,-0.0837,-0.0866,-0.0902,-0.0975,-0.1079,-0.1206,-0.1327,-0.1509,-0.1591,-0.1574,-0.1837,-0.1788,-0.1803,-0.1813,-0.1965,-0.2004,-0.2039,-0.159,-0.1588,-0.1587,0,0,-0.0742,-0.0751,-0.0775,-0.0786,-0.0793,-0.0822,-0.0837,-0.0868,-0.0926,-0.0959,-0.1046,-0.116,-0.1284,-0.1376,-0.1448,-0.1608,-0.1577,-0.1732,-0.1754,-0.1773,-0.1793,-0.1949,-0.1987,-0.1582,-0.1582,-0.1582,0,0,-0.0743,-0.0766,-0.0777,-0.0792,-0.0812,-0.0834,-0.0846,-0.0874,-0.0947,-0.0973,-0.1046,-0.1073,-0.1228,-0.1265,-0.1187,-0.1501,-0.1407,-0.1423,-0.1504,-0.1532,-0.1553,-0.1558,-0.1205,0,0,0,0,0,-0.075,-0.0757,-0.0767,-0.0772,-0.0803,-0.082,-0.0825,-0.0864,-0.0889,-0.0904,-0.0993,-0.1016,-0.1263,-0.1193,-0.1214,-0.1368,-0.1514,-0.1526,-0.1538,-0.1673,-0.1702,-0.1727,0,0,0,0,0,0,-0.0752,-0.0757,-0.0767,-0.0786,-0.0793,-0.082,-0.0844,-0.0854,-0.089,-0.0898,-0.0997,-0.1017,-0.1063,-0.1186,-0.1203,-0.1352,-0.1199,-0.1519,-0.1529,-0.1538,-0.1683,-0.1707,-0.1727,0,0,0,0,0,-0.0754,-0.0758,-0.08,-0.0786,-0.0793,-0.0839,-0.0846,-0.0854,-0.089,-0.0964,-0.0984,-0.0924,-0.106,-0.1082,-0.1196,-0.1345,-0.1187,-0.1193,-0.1526,-0.1534,-0.1541,-0.1695,0,0,0,0,0,0,-0.0755,-0.0763,-0.0802,-0.0805,-0.0803,-0.084,-0.0848,-0.0854,-0.0958,-0.0974,-0.0893,-0.0898,-0.1057,-0.1075,-0.1092,-0.1345,-0.1177,-0.1184,-0.1188,-0.1532,-0.1538,-0.1544,0,0,0,0,0,0,-0.0761,-0.0765,-0.0804,-0.0822,-0.0828,-0.0841,-0.0848,-0.0909,-0.0962,-0.0882,-0.0888,-0.0895,-0.1067,-0.107,-0.1084,-0.1174,-0.117,-0.1176,-0.118,-0.1183,-0.1537,-0.1542,0,0,0,0,0,0,-0.0763,-0.0767,-0.0822,-0.0826,-0.0831,-0.087,-0.09,-0.0951,-0.0909,-0.088,-0.0914,-0.0917,-0.1063,-0.1076,-0.1077,-0.1161,-0.1171,-0.117,-0.1174,-0.1177,-0.1179,0,0,0,0,0,0,0,-0.0765,-0.0733,-0.0784,-0.0829,-0.0834,-0.0836,-0.0837,-0.0837,-0.091,-0.0912,-0.0914,-0.0916,-0.1134,-0.1141,-0.1148,-0.1151,0,0,-0.1169,-0.1172,0,0,0,0,0,0,0,0,-0.0732,-0.0733,-0.0784,-0.0785,-0.0786,-0.0836,-0.0837,-0.0837,-0.091,-0.0912,-0.0914,-0.0915,-0.1136,-0.1142,-0.1147,0,0,0,0,0,0,0,0,0,0,0,0,0,0,0,-0.0784,-0.0785,0,-0.0836,-0.0836,-0.0837,-0.091,-0.0912,-0.0913,-0.0914,-0.1138,-0.1142,-0.1147,0,0,0,0,0,0,0,0,0,0,0,0,0,0,0,0,0,0,0,0,0,0,0,0,0,0,0,0,0,0,0,0,0,0,0,0,0,0,0,0,0,0,0,0,0,0,0,0,0,0,0,0,0,0,0,0,0,0,0,0,0,0,0,0,0,0,0,0,0]}],[{"header":{"parameterUnit":"kt","parameterCategory":2,"dx":1,"dy":1,"la1":30.253999710083008,"la2":30.299108505249023,"lo1":-89.0895004272461,"lo2":-89.04439544677734,"nx":28,"ny":28,"refTime":"2022-09-21T21:00:00:Z","depth":"4","parameterNumber":3,"parameterNumberName":"V-component_of_CURRENTS"},"data":[-0.0908,-0.0953,-0.0964,-0.1013,-0.1076,-0.1192,-0.1273,-0.1335,-0.1264,-0.1322,-0.1241,-0.127,-0.1129,-0.1276,-0.1014,-0.099,-0.0966,-0.0867,-0.0863,-0.0876,-0.0886,-0.0896,-0.0966,0,0,0,0,0,-0.0918,-0.0935,-0.1009,-0.1115,-0.121,-0.1306,-0.141,-0.1484,-0.1547,-0.1434,-0.1513,-0.1351,-0.1217,-0.1154,-0.1036,-0.1052,-0.0968,-0.0906,-0.0915,-0.0882,-0.0894,-0.0958,0,0,0,0,0,0,-0.0935,-0.0972,-0.1054,-0.1171,-0.1301,-0.1381,-0.1499,-0.151,-0.1575,-0.1638,-0.1528,-0.1501,-0.1471,-0.1301,-0.1161,-0.1076,-0.0989,-0.0941,-0.0949,-0.0959,-0.1015,-0.1086,-0.0859,0,0,0,0,0,-0.0953,-0.1014,-0.1087,-0.1226,-0.1369,-0.1499,-0.1642,-0.1665,-0.1778,-0.1888,-0.1766,-0.1704,-0.1528,-0.1374,-0.1293,-0.1105,-0.1176,-0.1067,-0.107,-0.1045,-0.1099,-0.1074,-0.1093,-0.0939,-0.0941,-0.0942,-0.0942,0,-0.0963,-0.1017,-0.1198,-0.1272,-0.1392,-0.1583,-0.1692,-0.1889,-0.1909,-0.199,-0.1944,-0.1884,-0.1843,-0.1523,-0.1419,-0.1215,-0.1158,-0.1099,-0.1075,-0.112,-0.1087,-0.1105,-0.112,-0.0952,-0.0951,-0.095,-0.0949,0,-0.0969,-0.1058,-0.1168,-0.1358,-0.1445,-0.156,-0.18,-0.1874,-0.203,-0.2088,-0.2122,-0.2127,-0.1936,-0.1887,-0.1615,-0.1505,-0.1299,-0.1203,-0.1413,-0.1379,-0.113,-0.1143,-0.0967,-0.0964,-0.0961,-0.0958,-0.0956,0,-0.1009,-0.1087,-0.1248,-0.1303,-0.1451,-0.158,-0.1748,-0.1867,-0.2017,-0.2056,-0.217,-0.2153,-0.2076,-0.1955,-0.1779,-0.1518,-0.1536,-0.1309,-0.1258,-0.1412,-0.1423,-0.1349,-0.1354,-0.1321,-0.1322,-0.1323,-0.1324,0,-0.1,-0.1146,-0.124,-0.1292,-0.1459,-0.1567,-0.1683,-0.1833,-0.1906,-0.2064,-0.2118,-0.2136,-0.2131,-0.1962,-0.1771,-0.1749,-0.1529,-0.149,-0.1315,-0.1311,-0.1357,-0.136,-0.1325,-0.1325,-0.1325,-0.1326,-0.1326,0,-0.1042,-0.1107,-0.1225,-0.137,-0.1407,-0.1519,-0.1679,-0.1771,-0.1911,-0.1982,-0.2077,-0.2101,-0.2086,-0.2026,-0.1835,-0.1859,-0.1699,-0.1597,-0.1588,-0.148,-0.144,-0.145,-0.1485,-0.1487,-0.1489,-0.1491,-0.1492,0,-0.1006,-0.1109,-0.118,-0.1305,-0.1365,-0.1457,-0.1557,-0.1662,-0.1751,-0.1868,-0.1924,-0.2021,-0.1978,-0.2007,-0.1925,-0.181,-0.1722,-0.18,-0.153,-0.1523,-0.1447,-0.1456,-0.1661,-0.1517,-0.1514,-0.1511,-0.151,0,-0.0971,-0.1094,-0.111,-0.1166,-0.1284,-0.1339,-0.1452,-0.1558,-0.1629,-0.1747,-0.1849,-0.1925,-0.1942,-0.1949,-0.1937,-0.1848,-0.1759,-0.1725,-0.1718,-0.1648,-0.155,-0.1493,-0.1473,-0.1671,-0.1669,-0.1668,-0.1527,0,-0.098,-0.1048,-0.1078,-0.1165,-0.1231,-0.1296,-0.1367,-0.1456,-0.1522,-0.1576,-0.171,-0.1759,-0.1823,-0.1844,-0.18,-0.1799,-0.1736,-0.1699,-0.1598,-0.1648,-0.1585,-0.1572,-0.1694,-0.1692,-0.169,-0.1689,0,0,-0.0923,-0.0985,-0.1023,-0.1078,-0.1127,-0.1171,-0.1239,-0.1296,-0.1406,-0.1453,-0.1464,-0.1617,-0.1632,-0.17,-0.1717,-0.1739,-0.165,-0.1661,-0.1649,-0.1645,-0.1641,-0.1582,-0.1572,-0.1686,-0.1685,-0.1685,-0.1684,0,-0.0907,-0.0951,-0.0997,-0.1046,-0.111,-0.1146,-0.1173,-0.1253,-0.1301,-0.1411,-0.1423,-0.1498,-0.1569,-0.1588,-0.1594,-0.1708,-0.1594,-0.171,-0.1721,-0.1638,-0.1637,-0.1635,-0.1578,-0.1569,-0.168,-0.168,-0.168,0,-0.0873,-0.0904,-0.0932,-0.1001,-0.1037,-0.1098,-0.1088,-0.1155,-0.1218,-0.1209,-0.1331,-0.1373,-0.138,-0.1459,-0.1495,-0.1442,-0.1496,-0.1526,-0.1535,-0.1516,-0.1425,-0.1425,-0.1426,-0.1409,-0.1408,-0.1407,0,0,-0.0859,-0.0905,-0.0948,-0.0996,-0.1019,-0.1065,-0.1102,-0.1131,-0.1181,-0.1214,-0.1262,-0.1298,-0.1344,-0.1357,-0.1412,-0.1464,-0.1393,-0.1495,-0.1508,-0.1518,-0.1506,-0.1419,-0.142,-0.1405,-0.1405,-0.1405,0,0,-0.0844,-0.0891,-0.0904,-0.0959,-0.1009,-0.1049,-0.1092,-0.1118,-0.1189,-0.1198,-0.1204,-0.1214,-0.1315,-0.1294,-0.1259,-0.1368,-0.1313,-0.1321,-0.1376,-0.1392,-0.1405,-0.138,-0.1206,0,0,0,0,0,-0.0839,-0.0881,-0.0892,-0.0905,-0.0981,-0.1041,-0.1056,-0.1092,-0.1096,-0.1144,-0.1183,-0.1155,-0.1276,-0.1245,-0.1255,-0.1299,-0.1369,-0.1376,-0.1382,-0.147,-0.1487,-0.1501,0,0,0,0,0,0,-0.0844,-0.0857,-0.0891,-0.0926,-0.0944,-0.104,-0.102,-0.1032,-0.1093,-0.1097,-0.115,-0.1155,-0.1151,-0.1239,-0.1248,-0.1291,-0.1203,-0.1372,-0.1377,-0.1382,-0.1476,-0.1489,-0.1501,0,0,0,0,0,-0.0847,-0.0858,-0.0968,-0.0927,-0.0943,-0.0996,-0.102,-0.103,-0.1093,-0.1101,-0.1109,-0.112,-0.1151,-0.116,-0.1244,-0.1287,-0.1197,-0.12,-0.1375,-0.1379,-0.1383,-0.1482,0,0,0,0,0,0,-0.085,-0.088,-0.0973,-0.098,-0.0916,-0.0994,-0.1006,-0.1027,-0.1094,-0.1103,-0.1065,-0.1067,-0.1151,-0.1158,-0.1166,-0.1287,-0.1191,-0.1195,-0.1197,-0.1378,-0.1382,-0.1385,0,0,0,0,0,0,-0.0874,-0.0885,-0.0977,-0.096,-0.0966,-0.0992,-0.1002,-0.104,-0.1094,-0.1056,-0.1059,-0.1065,-0.1127,-0.1157,-0.1163,-0.1221,-0.1187,-0.1191,-0.1193,-0.1195,-0.1381,-0.1384,0,0,0,0,0,0,-0.0879,-0.0889,-0.0959,-0.0963,-0.0968,-0.1049,-0.1025,-0.1097,-0.1095,-0.1052,-0.1094,-0.1093,-0.1124,-0.1131,-0.1161,-0.1217,-0.122,-0.1188,-0.119,-0.1191,-0.1192,0,0,0,0,0,0,0,-0.0884,-0.0806,-0.0928,-0.0966,-0.097,-0.1039,-0.1041,-0.1044,-0.1095,-0.1095,-0.1094,-0.1093,-0.1169,-0.1172,-0.1176,-0.1213,0,0,-0.1187,-0.1189,0,0,0,0,0,0,0,0,-0.0803,-0.0805,-0.0928,-0.0929,-0.093,-0.1039,-0.1041,-0.1043,-0.1095,-0.1095,-0.1094,-0.1093,-0.117,-0.1172,-0.1175,0,0,0,0,0,0,0,0,0,0,0,0,0,0,0,-0.0928,-0.0929,0,-0.1039,-0.1041,-0.1043,-0.1095,-0.1095,-0.1094,-0.1094,-0.117,-0.1173,-0.1175,0,0,0,0,0,0,0,0,0,0,0,0,0,0,0,0,0,0,0,0,0,0,0,0,0,0,0,0,0,0,0,0,0,0,0,0,0,0,0,0,0,0,0,0,0,0,0,0,0,0,0,0,0,0,0,0,0,0,0,0,0,0,0,0,0,0,0,0,0]}]]]